Starlink 5935

operational
NORAD ID: 56453 Int'l Des: 2023-064 Owner: SPXS Country: US Constellation: starlink
LEOCIRCULAR

关于 Starlink 5935

正在加载描述...

实时位置

正在加载3D地球...

即将过境

高度历史

Altitude vs Time

uPlot chart will show altitude changes over time

两行轨道根数

1 56453U 23064F 25303.91208810 -.00003617 00000-0 -29558-3 0 9991
2 56453 69.9993 111.7929 0002905 275.1914 84.8914 14.98314793135805
Epoch: Oct 30, 2025 • Age: 7 hours

当前状态

高度 574.5 km
速度 7.57 km/s
星下点 14.12°N, 170.57°E
发射日期 May 10, 2023
运行时间 2.4 years
类型 internet

技术详情

分类 Payload
质量 305.00 kg
干质量 290.00 kg
总质量 305.00 kg
长度 0.20 m
直径 2.80 m
跨度 9.00 m
形状 Box + pan
制造商 SPXS
平台类型 Starlink
阶段状态 In Orbit
所有者/国家 SPXS/US

大型星座

Loading constellations...